User: anonymous   Login
Location: Caltech
(34.1382°N, 118.1253°W)
Time: 09:02:30
(UTC-07:00)
Language:

NOSS 3-2 (A) - Orbit

View from above orbital plane
View from above orbital plane
View from above satellite
View from above satellite

Ground track
Ground track

The orbit data is extracted from the following two-line orbital elements,

1 28095U 03054A   17081.13460068 0.00000000  00000-0  00000-0 0    04
2 28095  63.4194 174.4568 0297000 358.3173   1.6827 13.41347177    08
Epoch (UTC): 22 March 2017 03:13:49
Eccentricity: 0.0297000
inclination: 63.4194°
perigee height: 882 km
apogee height: 1326 km
right ascension of ascending node: 174.4568°
argument of perigee: 358.3173°
revolutions per day: 13.41347177
mean anomaly at epoch: 1.6827°
orbit number at epoch: 0

The dashed part of the orbit path shows where the satellite is in the earth's shadow,  

DLR